Location: Sevilla
(37.3933°N, 5.9839°W)
Time: 06:03:40
(UTC+02:00)

Transit 2A - Pass Details

Date: 01 July 2024
Orbit: 591 x 960 km, 66.7° (Epoch: 15 July)

Event Time Altitude Azimuth Distance (km) Brightness Sun altitude
Rises 13:42:02 0° 161° (SSE) 2,984 9.3 72.6°
Reaches altitude 10° 13:45:04 10° 139° (SE) 2,144 8.7 73.0°
Maximum altitude 13:47:58 16° 103° (ESE) 1,849 8.4 73.3°
Drops below altitude 10° 13:51:00 10° 67° (ENE) 2,294 8.7 73.6°
Sets 13:54:25 0° 46° (NE) 3,311 9.3 74.0°
